TimeMDT,TemperatureF,Dew PointF,Humidity,Sea Level PressureIn,VisibilityMPH,Wind Direction,Wind SpeedMPH,Gust SpeedMPH,PrecipitationIn,Events,Conditions,WindDirDegrees,DateUTC
12:53 AM,53.1,41.0,64,29.92,10.0,SSW,12.7,-,0.00,Rain,Light Rain,200,2013-05-25 06:53:00
1:53 AM,52.0,39.9,63,29.92,10.0,SSW,10.4,-,0.00,Rain,Light Rain,210,2013-05-25 07:53:00
2:53 AM,51.1,39.9,66,29.91,10.0,South,4.6,-,0.00,Rain,Light Rain,180,2013-05-25 08:53:00
3:53 AM,51.1,39.9,66,29.88,10.0,SW,15.0,24.2,0.01,Rain,Light Rain,220,2013-05-25 09:53:00
4:53 AM,48.9,42.1,77,29.90,10.0,SSW,11.5,-,0.00,,Overcast,210,2013-05-25 10:53:00
5:53 AM,48.9,37.9,66,29.91,10.0,SSW,5.8,-,N/A,,Mostly Cloudy,210,2013-05-25 11:53:00
6:53 AM,48.9,42.1,77,29.95,10.0,Calm,Calm,-,N/A,,Overcast,0,2013-05-25 12:53:00
7:53 AM,52.0,41.0,66,29.94,10.0,SSW,4.6,-,N/A,,Clear,200,2013-05-25 13:53:00
8:53 AM,57.0,37.0,47,29.94,10.0,SSW,9.2,-,N/A,,Clear,210,2013-05-25 14:53:00
9:53 AM,59.0,36.0,42,29.93,10.0,SSW,9.2,-,N/A,,Clear,210,2013-05-25 15:53:00
10:53 AM,61.0,34.0,36,29.91,10.0,SSW,13.8,19.6,N/A,,Clear,210,2013-05-25 16:53:00
11:53 AM,63.0,34.0,34,29.91,10.0,SW,10.4,21.9,N/A,,Clear,230,2013-05-25 17:53:00
12:53 PM,66.0,33.1,29,29.88,10.0,WSW,12.7,21.9,N/A,,Clear,240,2013-05-25 18:53:00
1:53 PM,66.0,32.0,28,29.88,10.0,SW,12.7,-,N/A,,Clear,230,2013-05-25 19:53:00
2:53 PM,66.9,30.9,26,29.89,10.0,SW,13.8,-,N/A,,Partly Cloudy,220,2013-05-25 20:53:00
3:53 PM,66.9,32.0,27,29.89,10.0,SW,10.4,-,N/A,,Partly Cloudy,220,2013-05-25 21:53:00
4:53 PM,66.0,30.9,27,29.88,10.0,SSW,9.2,-,N/A,,Clear,210,2013-05-25 22:53:00
5:53 PM,69.1,28.9,22,29.87,10.0,Variable,3.5,-,N/A,,Clear,0,2013-05-25 23:53:00
6:53 PM,69.1,30.0,23,29.87,10.0,Calm,Calm,-,N/A,,Clear,0,2013-05-26 00:53:00
7:53 PM,68.0,33.1,27,29.87,10.0,WNW,4.6,-,N/A,,Clear,300,2013-05-26 01:53:00
8:53 PM,61.0,36.0,39,29.88,10.0,WNW,6.9,-,N/A,,Mostly Cloudy,300,2013-05-26 02:53:00
9:53 PM,55.9,42.1,60,29.89,10.0,Calm,Calm,-,N/A,,Scattered Clouds,0,2013-05-26 03:53:00
10:53 PM,46.9,37.9,71,29.92,10.0,South,6.9,-,N/A,,Clear,180,2013-05-26 04:53:00
11:53 PM,48.0,36.0,63,29.93,10.0,SE,3.5,-,N/A,,Clear,140,2013-05-26 05:53:00